This is the latest recevied weather packets stored in our database for station/object WW3TRG. If no packets are shown the sender has not sent any weather packets the latest 10 day(s).
| Time | Temp. | Humidity | Pressure | Rain* | Wind** | Luminosity | Snow |
|---|---|---|---|---|---|---|---|
| 1777928434 | 23.33° C | 38% | 1007.9 hPa | 0 mm | - | 329 W/m² | - |
| 1777928132 | 23.33° C | 36% | 1008.1 hPa | 0 mm | - | 345 W/m² | - |
| 1777927829 | 23.33° C | 38% | 1008 hPa | 0 mm | - | 338 W/m² | - |
| 1777927527 | 23.33° C | 38% | 1008.1 hPa | 0 mm | - | 432 W/m² | - |
| 1777927227 | 22.78° C | 38% | 1008.3 hPa | 0 mm | - | 185 W/m² | - |
| 1777926924 | 23.33° C | 37% | 1008.5 hPa | 0 mm | - | 122 W/m² | - |
| 1777926621 | 23.89° C | 38% | 1008.2 hPa | 0 mm | - | 328 W/m² | - |
| 1777926317 | 23.89° C | 37% | 1008.3 hPa | 0 mm | - | 475 W/m² | - |
| 1777926014 | 23.33° C | 39% | 1008.2 hPa | 0 mm | - | 366 W/m² | - |
| 1777925711 | 23.89° C | 37% | 1008.4 hPa | 0 mm | - | 424 W/m² | - |
| 1777925409 | 23.33° C | 38% | 1008.7 hPa | 0 mm | - | 443 W/m² | - |
| 1777925104 | 23.33° C | 38% | 1008.2 hPa | 0 mm | - | 309 W/m² | - |
| 1777924801 | 23.33° C | 37% | 1008.4 hPa | 0 mm | - | 368 W/m² | - |
| 1777924497 | 23.33° C | 38% | 1008.3 hPa | 0 mm | - | 417 W/m² | - |
| 1777924193 | 22.78° C | 38% | 1008.6 hPa | 0 mm | - | 92 W/m² | - |
| 1777923890 | 22.78° C | 39% | 1008.6 hPa | 0 mm | - | 415 W/m² | - |
| 1777923585 | 22.78° C | 37% | 1008.7 hPa | 0 mm | - | 449 W/m² | - |
| 1777923283 | 23.33° C | 37% | 1008.7 hPa | 0 mm | - | 537 W/m² | - |
| 1777922982 | 23.33° C | 41% | 1008.8 hPa | 0 mm | - | 95 W/m² | - |
| 1777922678 | 23.33° C | 38% | 1008.7 hPa | 0 mm | - | 521 W/m² | - |
| 1777922377 | 22.78° C | 40% | 1008.7 hPa | 0 mm | - | 505 W/m² | - |
| 1777922075 | 22.78° C | 39% | 1008.8 hPa | 0 mm | - | 235 W/m² | - |
| 1777921770 | 21.67° C | 43% | 1008.9 hPa | 0 mm | - | 322 W/m² | - |
| 1777921466 | 21.67° C | 40% | 1008.7 hPa | 0 mm | - | 357 W/m² | - |
| 1777921163 | 21.67° C | 40% | 1008.9 hPa | 0 mm | - | 105 W/m² | - |
* Rain latest hour (hover to see other rain measurements)
** Current wind speed in m/s (hover to see current wind gust speed)